Location: Newark
(27.9675°N, 86.8869°E)
Time: 09:38:35
(UTC+00:00)

Courier 1B Rocket - Pass Details

Date: 23 October 2019
Orbit: 920 x 1202 km, 28.2° (Epoch: 14 November)

Event Time Altitude Azimuth Distance (km) Brightness Sun altitude
Rises 23:24:31 0° 278° (W) 3,554 - -12.4°
Reaches altitude 10° 23:27:07 10° 277° (W) 2,605 - -11.9°
Exits shadow 23:28:06 15° 276° (W) 2,255 6.2 -11.7°
Maximum altitude 23:33:20 77° 192° (SSW) 948 5.0 -10.5°
Drops below altitude 10° 23:39:43 10° 107° (ESE) 2,666 8.9 -9.1°
Sets 23:42:24 0° 106° (ESE) 3,643 10.3 -8.5°
